Weather History for Columbus, OH

Change the Weather History Date:

Tuesday, February 7, 2012

  Actual Average Record
Temperature  
Mean Temperature 33 °F 31 °F  
Max Temperature 36 °F 39 °F 61 °F (1925)
Min Temperature 29 °F 24 °F -2 °F (1977)
Degree Days  
Heating Degree Days 32 34  
Month to date heating degree days 179 241  
Since 1 July heating degree days 2818 3333  
Cooling Degree Days 0 0  
Month to date cooling degree days 0 0  
Year to date cooling degree days 0 0  
Moisture  
Dew Point 27 °F    
Average Humidity 78    
Maximum Humidity 85    
Minimum Humidity 70    
Precipitation  
Precipitation 0.00 in 0.09 in 0.79 in (1999)
Month to date precipitation 0.22 0.59  
Year to date precipitation 4.04 3.32  
Snow  
Snow 0.00 in 0.20 in 3.60 in (1895)
Month to date snowfall T 1.7  
Since 1 July snowfall 6.5 17.0  
Snow Depth 0.00 in    
Sea Level Pressure  
Sea Level Pressure 30.24 in    
Wind  
Wind Speed 4 mph (NNW)    
Max Wind Speed 12 mph    
Max Gust Speed 22 mph    
Visibility 8 miles    
Events      
T = Trace of Precipitation, MM = Missing Value Source: NWS Daily Summary

Daily Weather History Graph

Daily Weather History Graph

Search for Another Location

Airport:

Trip Planner

Search our weather history database for the weather conditions in past years. The results will help you decide how hot, cold, wet, or windy it might be!

Date:

Astronomy

Feb. 07, 2012 Rise Set
Actual Time 7:34 AM EST 5:57 PM EST
Civil Twilight 7:06 AM EST 6:25 PM EST
Nautical Twilight 6:34 AM EST 6:57 PM EST
Astronomical Twilight 6:02 AM EST 7:29 PM EST
Moon 6:07 PM EST (2/7) 7:02 AM EST (2/7)
Length of Visible Light 11h 19m
Length of Day
10h 22m
Full, 100% of the Moon is Illuminated
Feb 7
Full
Feb 7
Full
Feb 14
Last Quarter
Feb 21
New
Feb 29
First Quarter

Hourly Weather History & Observations

Time (EST) Temp. Windchill Dew Point Humidity Pressure Visibility Wind Dir Wind Speed Gust Speed Precip Events Conditions
12:51 AM 35.1 °F - 27.0 °F 72% 30.16 in 10.0 mi Calm Calm - N/A   Clear
1:51 AM 32.0 °F - 26.1 °F 79% 30.16 in 10.0 mi Calm Calm - N/A   Clear
2:51 AM 30.0 °F - 27.0 °F 88% 30.16 in 10.0 mi Calm Calm - N/A   Clear
3:42 AM 30.2 °F 26.7 °F 26.6 °F 86% 30.15 in 10.0 mi WNW 3.5 mph - N/A   Overcast
3:51 AM 30.9 °F 26.2 °F 27.0 °F 85% 30.18 in 10.0 mi West 4.6 mph - N/A   Overcast
4:51 AM 34.0 °F 29.8 °F 28.9 °F 82% 30.19 in 8.0 mi WNW 4.6 mph - N/A   Overcast
5:51 AM 34.0 °F 26.6 °F 28.9 °F 82% 30.19 in 8.0 mi NW 9.2 mph - N/A   Overcast
6:51 AM 33.1 °F 26.9 °F 27.0 °F 78% 30.20 in 8.0 mi NW 6.9 mph - N/A   Overcast
7:51 AM 32.0 °F 25.6 °F 26.1 °F 79% 30.23 in 7.0 mi NNW 6.9 mph - N/A   Overcast
8:51 AM 32.0 °F 26.4 °F 26.1 °F 79% 30.25 in 8.0 mi North 5.8 mph - N/A   Overcast
9:51 AM 33.1 °F - 26.1 °F 75% 30.26 in 9.0 mi Calm Calm - N/A   Overcast
10:51 AM 33.1 °F 26.9 °F 26.1 °F 75% 30.27 in 7.0 mi North 6.9 mph - N/A   Overcast
11:51 AM 33.1 °F 30.0 °F 26.1 °F 75% 30.27 in 7.0 mi NNW 3.5 mph - N/A   Overcast
12:04 PM 33.8 °F 27.0 °F 26.6 °F 75% 30.24 in 8.0 mi North 8.1 mph - N/A   Overcast
12:51 PM 33.1 °F 30.0 °F 26.1 °F 75% 30.26 in 8.0 mi North 3.5 mph - N/A   Overcast
1:51 PM 34.0 °F 28.8 °F 26.1 °F 73% 30.25 in 8.0 mi North 5.8 mph - N/A   Overcast
2:51 PM 34.0 °F - 26.1 °F 73% 30.25 in 7.0 mi Calm Calm - N/A   Overcast
3:51 PM 35.1 °F 32.2 °F 26.1 °F 70% 30.26 in 8.0 mi SE 3.5 mph - N/A   Overcast
4:51 PM 36.0 °F - 26.1 °F 67% 30.26 in 8.0 mi Calm Calm - N/A   Overcast
5:51 PM 36.0 °F - 26.1 °F 67% 30.27 in 8.0 mi Calm Calm - N/A   Overcast
6:00 PM 35.6 °F - 26.6 °F 70% 30.24 in 8.0 mi Calm Calm - N/A   Overcast
6:51 PM 35.1 °F 31.0 °F 26.1 °F 70% 30.28 in 8.0 mi West 4.6 mph - N/A   Overcast
7:03 PM 35.6 °F 32.8 °F 26.6 °F 70% 30.25 in 8.0 mi WNW 3.5 mph - N/A   Overcast
7:51 PM 36.0 °F 32.1 °F 26.1 °F 67% 30.28 in 8.0 mi NW 4.6 mph - N/A   Overcast
7:58 PM 35.6 °F 32.8 °F 26.6 °F 70% 30.25 in 8.0 mi NNW 3.5 mph - N/A   Overcast
8:51 PM 36.0 °F - 27.0 °F 70% 30.27 in 8.0 mi Calm Calm - N/A   Overcast
9:07 PM 35.6 °F - 26.6 °F 70% 30.25 in 8.0 mi Calm Calm - N/A   Overcast
9:51 PM 36.0 °F 32.1 °F 28.0 °F 73% 30.28 in 7.0 mi North 4.6 mph - N/A   Overcast
10:51 PM 35.1 °F 28.6 °F 28.9 °F 78% 30.27 in 10.0 mi NE 8.1 mph - N/A   Overcast
11:51 PM 34.0 °F 27.2 °F 28.9 °F 82% 30.27 in 10.0 mi NNE 8.1 mph - N/A   Overcast
11:53 PM 33.8 °F 27.0 °F 28.4 °F 81% 30.25 in 10.0 mi NNE 8.1 mph - N/A   Overcast